Altoona, PA

5:54 AM EDT on September 23, 2017 (GMT -0400)
Altoona-Blair County

Weather History for KAOO - October, 2014

Change the Weather History Date:

Wednesday, October 1, 2014

  Actual Average Record
Temperature  
Mean Temperature 61 °F 56 °F  
Max Temperature 68 °F 66 °F 80 °F (1952)
Min Temperature 53 °F 45 °F 29 °F (1993)
Degree Days  
Heating Degree Days 4 10  
Month to date heating degree days 4 10  
Since 1 July heating degree days 162 181  
Cooling Degree Days 0 0  
Month to date cooling degree days 0 0  
Year to date cooling degree days 519 522  
Growing Degree Days 13 (Base 50)    
Moisture  
Dew Point 58 °F    
Average Humidity 87    
Maximum Humidity 100    
Minimum Humidity 73    
Precipitation  
Precipitation 0.01 in 0.09 in 1.47 in (1976)
Month to date precipitation 0.01 0.09  
Year to date precipitation 29.39 24.47  
Sea Level Pressure  
Sea Level Pressure 29.99 in    
Wind  
Wind Speed 3 mph (East)    
Max Wind Speed 12 mph    
Max Gust Speed 15 mph    
Visibility 5 miles    
Events Fog , Rain , Thunderstorm    
T = Trace of Precipitation, MM = Missing Value Source: NWS Daily Summary

Daily Weather History Graph

Daily Weather History Graph

Search for Another Location

Airport or City:

Trip Planner

Search our weather history database for the weather conditions in past years. The results will help you decide how hot, cold, wet, or windy it might be!

Date:

Astronomy

Oct. 01, 2014 Rise Set
Actual Time 7:09 AM EDT 6:55 PM EDT
Civil Twilight 6:42 AM EDT 7:22 PM EDT
Nautical Twilight 6:10 AM EDT 7:54 PM EDT
Astronomical Twilight 5:39 AM EDT 8:25 PM EDT
Moon 2:09 PM EDT (10/1) No Moon Set
Length of Visible Light 12h 40m
Length of Day
11h 45m
Waxing Crescent, 48% of the Moon is Illuminated
Oct 1
Waxing Crescent
Oct 1
First Quarter
Oct 8
Full
Oct 15
Last Quarter
Oct 23
New

Hourly Weather History & Observations

Time (EDT) Temp. Dew Point Humidity Pressure Visibility Wind Dir Wind Speed Gust Speed Precip Events Conditions
12:24 AM 55.9 °F 55.9 °F 100% 29.98 in 0.5 mi South 3.5 mph - N/A Fog Fog
12:37 AM 57.0 °F 57.0 °F 100% 29.99 in 0.2 mi Calm Calm - N/A Fog Fog
12:49 AM 57.2 °F 57.2 °F 100% 29.99 in 1.0 mi Calm Calm - N/A   Overcast
12:53 AM 57.0 °F 57.0 °F 100% 29.97 in 1.5 mi South 3.5 mph - N/A   Overcast
1:09 AM 57.0 °F 57.0 °F 100% 29.98 in 1.2 mi SE 6.9 mph - 0.00 in Rain Light Rain
1:25 AM 57.0 °F 57.0 °F 100% 29.98 in 2.5 mi North - - 0.01 in Rain Light Rain
1:33 AM 57.9 °F 57.9 °F 100% 29.98 in 4.0 mi Variable 3.5 mph - 0.01 in Rain Light Rain
1:53 AM 59.0 °F 57.0 °F 93% 29.97 in 6.0 mi Calm Calm - 0.01 in   Mostly Cloudy
2:43 AM 57.0 °F 57.0 °F 100% 29.99 in 1.8 mi ENE 3.5 mph - N/A   Mostly Cloudy
2:49 AM 57.2 °F 57.2 °F 100% 29.99 in 0.5 mi ENE 3.5 mph - N/A Fog Fog
2:53 AM 55.9 °F 55.9 °F 100% 29.97 in 0.2 mi Calm Calm - N/A Fog Fog
3:53 AM 60.1 °F 57.0 °F 90% 29.90 in 10.0 mi Calm Calm - N/A   Overcast
4:23 AM 57.0 °F 57.0 °F 100% 29.99 in 0.8 mi Calm Calm - N/A   Mist
4:27 AM 57.0 °F 57.0 °F 100% 29.98 in 2.0 mi NE 3.5 mph - N/A   Overcast
4:35 AM 57.0 °F 57.0 °F 100% 29.99 in 4.0 mi NNE 4.6 mph - N/A   Overcast
4:48 AM 57.2 °F 57.2 °F 100% 29.99 in 3.0 mi Calm Calm - N/A   Overcast
4:53 AM 57.0 °F 57.0 °F 100% 29.98 in 3.0 mi Calm Calm - N/A   Overcast
5:17 AM 57.0 °F 57.0 °F 100% 29.99 in 2.5 mi Calm Calm - N/A   Overcast
5:26 AM 57.0 °F 57.0 °F 100% 29.99 in 3.0 mi Calm Calm - N/A   Overcast
5:53 AM 57.0 °F 57.0 °F 100% 30.00 in 4.0 mi Calm Calm - N/A   Overcast
6:17 AM 57.0 °F 57.0 °F 100% 30.01 in 5.0 mi Calm Calm - N/A   Mist
6:41 AM 57.0 °F 57.0 °F 100% 30.01 in 2.5 mi East 3.5 mph - N/A   Overcast
6:53 AM 57.0 °F 57.0 °F 100% 30.01 in 2.5 mi Calm Calm - N/A   Overcast
7:08 AM 57.0 °F 57.0 °F 100% 30.02 in 2.5 mi ENE 3.5 mph - N/A   Overcast
7:39 AM 57.0 °F 57.0 °F 100% 30.03 in 3.0 mi Calm Calm - N/A   Overcast
8:53 AM 59.0 °F 57.9 °F 96% 30.04 in 5.0 mi ENE 3.5 mph - N/A   Overcast
9:53 AM 60.8 °F 57.2 °F 88% 30.07 in 6.0 mi East 4.6 mph - N/A   Overcast
10:40 AM 61.0 °F 57.9 °F 90% 30.07 in 9.0 mi ENE 3.5 mph - N/A   Overcast
10:53 AM 61.0 °F 59.0 °F 93% 30.07 in 8.0 mi ENE 5.8 mph - N/A   Overcast
11:04 AM 62.1 °F 57.9 °F 86% 30.08 in 10.0 mi East 6.9 mph - N/A   Overcast
11:17 AM 62.1 °F 59.0 °F 90% 30.08 in 10.0 mi Variable 4.6 mph - N/A   Overcast
11:44 AM 61.0 °F 57.9 °F 90% 30.08 in 7.0 mi East 5.8 mph - N/A   Overcast
11:53 AM 61.0 °F 57.9 °F 90% 30.08 in 8.0 mi ENE 4.6 mph - N/A   Overcast
12:53 PM 64.0 °F 59.0 °F 84% 30.07 in 9.0 mi Variable 3.5 mph - N/A   Overcast
1:12 PM 64.9 °F 59.0 °F 81% 30.07 in 10.0 mi East 6.9 mph - N/A   Overcast
1:26 PM 66.0 °F 59.0 °F 78% 30.07 in 10.0 mi Variable 5.8 mph - N/A   Mostly Cloudy
1:42 PM 64.9 °F 57.9 °F 78% 30.06 in 10.0 mi East 5.8 mph - N/A   Overcast
1:53 PM 72.0 °F 59.0 °F 64% 29.88 in 10.0 mi East 4.6 mph - 0.00 in   Mostly Cloudy
2:00 PM 66.0 °F 59.0 °F 78% 30.06 in 10.0 mi East 6.9 mph - N/A   Scattered Clouds
2:03 PM 72.0 °F 60.1 °F 66% 29.89 in 10.0 mi East 5.8 mph - N/A Thunderstorm Thunderstorm
2:18 PM 73.0 °F 57.9 °F 59% 29.89 in 10.0 mi SSE 9.2 mph - N/A Thunderstorm Partly Cloudy
2:53 PM 66.0 °F 57.0 °F 73% 30.04 in 10.0 mi East 3.5 mph - N/A   Partly Cloudy
3:53 PM 69.1 °F 59.0 °F 70% 29.86 in 7.0 mi SE 6.9 mph - 0.01 in Rain Rain
4:12 PM 68.0 °F 61.0 °F 78% 29.87 in 10.0 mi ESE 8.1 mph - 0.01 in Rain , Thunderstorm Light Rain
4:33 PM 68.0 °F 61.0 °F 78% 29.86 in 10.0 mi SE 8.1 mph - 0.01 in Thunderstorm Thunderstorm
4:53 PM 66.9 °F 60.1 °F 79% 29.85 in 6.0 mi SSE 8.1 mph - 0.02 in Rain , Thunderstorm Light Thunderstorms and Rain
5:04 PM 64.9 °F 61.0 °F 87% 29.88 in 1.8 mi West 10.4 mph - 0.09 in Rain , Thunderstorm Thunderstorms and Rain
5:15 PM 63.0 °F 60.1 °F 90% 29.90 in 0.8 mi SW 6.9 mph - 0.34 in Rain , Thunderstorm Heavy Thunderstorms and Rain
5:25 PM 64.0 °F 57.0 °F 78% 29.89 in 1.8 mi SSE 10.4 mph 16.1 mph 0.40 in Rain , Thunderstorm Heavy Thunderstorms and Rain
5:27 PM 64.0 °F 55.0 °F 73% 29.90 in 3.0 mi South 5.8 mph - 0.41 in Rain , Thunderstorm Thunderstorms and Rain
5:53 PM 66.0 °F 57.0 °F 73% 30.04 in 10.0 mi SE 5.8 mph - N/A   Clear
6:53 PM 62.1 °F 60.1 °F 93% 29.93 in 8.0 mi West 4.6 mph - N/A   Mostly Cloudy
7:53 PM 61.0 °F 60.1 °F 97% 29.94 in 6.0 mi Calm Calm - N/A   Mostly Cloudy
8:53 PM 55.9 °F 55.0 °F 97% 30.08 in 8.0 mi Calm Calm - N/A   Clear
9:53 PM 55.0 °F 54.0 °F 96% 30.09 in 8.0 mi Calm Calm - N/A   Clear
10:53 PM 55.0 °F 54.0 °F 96% 30.09 in 3.0 mi Calm Calm - N/A   Clear
11:37 PM 57.0 °F 57.0 °F 100% 29.98 in 1.8 mi East 3.5 mph - N/A   Overcast
11:50 PM 53.6 °F 53.6 °F 100% 30.10 in 2.0 mi East 3.5 mph - N/A   Clear
11:53 PM 53.1 °F 53.1 °F 100% 30.10 in 2.0 mi Calm Calm - N/A   Clear